Location: Northam
(31.6525°S, 116.6655°E)
Time: 22:37:58
(UTC+08:00)

Envisat - Pass Details

Date: 19 May 2021
Orbit: 764 x 766 km, 98.1° (Epoch: 13 June)

Event Time Altitude Azimuth Distance (km) Brightness Sun altitude
Rises 05:35:28 0° 352° (N) 3,215 6.3 -17.3°
Reaches altitude 10° 05:37:56 10° 343° (NNW) 2,297 5.4 -16.8°
Maximum altitude 05:42:31 35° 278° (W) 1,236 3.6 -15.8°
Enters shadow 05:45:53 17° 221° (SW) 1,885 4.5 -15.1°
